TimeCST,TemperatureF,Dew PointF,Humidity,Sea Level PressureIn,VisibilityMPH,Wind Direction,Wind SpeedMPH,Gust SpeedMPH,PrecipitationIn,Events,Conditions,WindDirDegrees,DateUTC
12:54 AM,28.0,24.1,85,30.00,9.0,Calm,Calm,-,N/A,,Overcast,0,2013-12-02 06:54:00
1:54 AM,27.0,24.1,89,29.99,10.0,Calm,Calm,-,N/A,,Overcast,0,2013-12-02 07:54:00
2:54 AM,27.0,21.9,81,29.97,10.0,SSE,4.6,-,N/A,,Overcast,160,2013-12-02 08:54:00
3:54 AM,28.0,21.9,78,29.97,10.0,Calm,Calm,-,N/A,,Overcast,0,2013-12-02 09:54:00
4:54 AM,28.0,21.9,78,29.96,10.0,Calm,Calm,-,N/A,,Overcast,0,2013-12-02 10:54:00
5:54 AM,28.0,23.0,81,29.95,10.0,Calm,Calm,-,N/A,,Overcast,0,2013-12-02 11:54:00
6:54 AM,28.0,21.9,78,29.94,10.0,Calm,Calm,-,N/A,,Overcast,0,2013-12-02 12:54:00
7:54 AM,28.9,23.0,78,29.94,10.0,SE,3.5,-,N/A,,Overcast,140,2013-12-02 13:54:00
8:54 AM,28.9,23.0,78,29.94,10.0,SE,4.6,-,N/A,,Overcast,140,2013-12-02 14:54:00
9:54 AM,30.9,24.1,76,29.94,9.0,SE,4.6,-,N/A,,Overcast,140,2013-12-02 15:54:00
10:54 AM,33.1,21.9,64,29.92,10.0,SSE,6.9,-,N/A,,Overcast,160,2013-12-02 16:54:00
11:54 AM,34.0,21.0,59,29.91,10.0,South,6.9,-,N/A,,Overcast,170,2013-12-02 17:54:00
12:54 PM,34.0,21.0,59,29.89,10.0,SSE,4.6,-,N/A,,Overcast,150,2013-12-02 18:54:00
1:54 PM,34.0,21.0,59,29.87,10.0,SE,3.5,-,N/A,,Overcast,140,2013-12-02 19:54:00
2:54 PM,33.1,23.0,66,29.87,10.0,East,6.9,-,N/A,,Overcast,100,2013-12-02 20:54:00
3:54 PM,33.1,23.0,66,29.88,10.0,East,5.8,-,N/A,,Overcast,100,2013-12-02 21:54:00
4:54 PM,32.0,24.1,73,29.88,10.0,ESE,6.9,-,N/A,,Overcast,110,2013-12-02 22:54:00
5:17 PM,32.0,23.0,69,29.83,10.0,ESE,8.1,-,N/A,,Overcast,110,2013-12-02 23:17:00
5:54 PM,30.9,24.1,76,29.88,10.0,ESE,6.9,-,N/A,,Overcast,120,2013-12-02 23:54:00
6:54 PM,30.9,25.0,79,29.90,10.0,ESE,8.1,-,N/A,,Overcast,110,2013-12-03 00:54:00
7:54 PM,30.9,25.0,79,29.89,10.0,ESE,6.9,-,N/A,,Overcast,110,2013-12-03 01:54:00
8:42 PM,30.2,24.8,80,29.85,2.5,East,9.2,-,0.00,Snow,Light Snow,100,2013-12-03 02:42:00
8:52 PM,30.2,24.8,80,29.85,4.0,East,8.1,-,0.00,Snow,Light Snow,100,2013-12-03 02:52:00
8:54 PM,30.0,25.0,82,29.90,4.0,East,9.2,-,0.00,Snow,Light Snow,100,2013-12-03 02:54:00
9:54 PM,30.0,24.1,79,29.88,10.0,ESE,6.9,-,N/A,,Overcast,110,2013-12-03 03:54:00
10:13 PM,30.2,23.0,75,29.84,10.0,East,6.9,-,N/A,,Overcast,90,2013-12-03 04:13:00
10:54 PM,30.0,23.0,75,29.88,10.0,East,6.9,-,N/A,,Overcast,100,2013-12-03 04:54:00
11:38 PM,30.2,23.0,75,29.83,10.0,East,10.4,17.3,N/A,,Overcast,100,2013-12-03 05:38:00
11:54 PM,30.9,23.0,72,29.88,10.0,East,9.2,-,N/A,,Overcast,100,2013-12-03 05:54:00